Date String (YYYY-MM-DD hh:mm:ss) UTC,Instrument flags,Ambient pressure (hPa),Sample flow (lpm),Bypass flow (lpm),Sample temperature (°C),Ambient temperature (°C),ASC tube jacket temperature (°C),LED temperature (°C),Box temperature (°C),Sample RH (%),Span deviation,Mass concentration (μg/m³),Mass concentration (μg/m³),Mass concentration (μg/m³)
DateTimeUTC,F1_M11,P_M11,Q1_M11,Q2_M11,T1_M11,T2_M11,T3_M11,T4_M11,T5_M11,U1_M11,ZSPAN_M11,X2_M11,X0_M11,X1_M11
2023-05-11 14:00:00,,0824.3,5.00,0.00,25.6,23.9,00.0,34.0,27.3,29.6,0000.0,0001.35,0005.00,0000.77
2023-05-11 14:01:00,,0824.2,5.00,0.00,25.6,23.9,00.0,34.0,27.3,29.7,0000.0,0001.39,0005.09,0000.78
2023-05-11 14:02:00,,0824.1,5.00,0.00,25.6,23.9,00.0,34.0,27.3,29.7,0000.0,0001.37,0004.45,0000.78
2023-05-11 14:03:00,,0824.1,5.00,0.00,25.6,23.9,00.0,34.0,27.3,29.7,0000.0,0001.35,0005.10,0000.78
2023-05-11 14:04:00,,0824.2,5.00,0.00,25.6,23.8,00.0,34.0,27.3,29.9,0000.0,0001.37,0005.30,0000.80
2023-05-11 14:05:00,,0824.1,5.00,0.00,25.6,23.8,00.0,34.0,27.2,29.7,0000.0,0001.37,0005.30,0000.80
2023-05-11 14:06:00,,0824.0,5.00,0.00,25.6,23.8,00.0,34.0,27.2,29.9,0000.0,0001.36,0005.19,0000.81
2023-05-11 14:07:00,,0824.0,5.00,0.00,25.6,23.8,00.0,34.0,27.2,29.9,0000.0,0001.35,0005.17,0000.80
2023-05-11 14:08:00,,0824.0,5.00,0.00,25.5,23.8,00.0,34.0,27.2,29.5,0000.0,0001.38,0005.29,0000.80
2023-05-11 14:09:00,,0824.0,5.00,0.00,25.5,23.8,00.0,34.0,27.2,29.3,0000.0,0001.43,0004.22,0000.80
2023-05-11 14:10:00,,0823.9,5.00,0.00,25.5,23.8,00.0,34.0,27.2,29.2,0000.0,0001.42,0004.00,0000.80
2023-05-11 14:11:00,,0824.0,5.00,0.00,25.5,23.8,00.0,34.0,27.2,29.4,0000.0,0001.35,0003.65,0000.79
2023-05-11 14:12:00,,0823.9,5.00,0.00,25.5,23.8,00.0,34.0,27.2,29.8,0000.0,0001.28,0003.44,0000.78
2023-05-11 14:13:00,,0824.0,5.00,0.00,25.5,23.8,00.0,34.0,27.2,29.4,0000.0,0001.24,0003.42,0000.76
2023-05-11 14:14:00,,0823.9,5.00,0.00,25.5,23.8,00.0,33.9,27.2,29.2,0000.0,0001.21,0002.64,0000.74
2023-05-11 14:15:00,,0823.9,5.00,0.00,25.5,23.8,00.0,33.9,27.2,28.9,0000.0,0001.17,0002.33,0000.72
2023-05-11 14:16:00,,0823.9,5.01,0.00,25.5,23.8,00.0,33.9,27.2,28.0,0000.0,0001.15,0002.28,0000.70
2023-05-11 14:17:00,,0823.9,5.01,0.00,25.5,23.8,00.0,33.9,27.2,28.8,0000.0,0001.12,0002.23,0000.68
2023-05-11 14:18:00,,0823.8,5.00,0.00,25.5,23.8,00.0,33.9,27.2,28.9,0000.0,0001.10,0002.56,0000.67
2023-05-11 14:19:00,,0823.8,5.00,0.00,25.5,23.8,00.0,33.9,27.2,28.2,0000.0,0001.07,0002.81,0000.65
2023-05-11 14:20:00,,0823.9,5.00,0.00,25.5,23.8,00.0,33.9,27.1,28.0,0000.0,0001.01,0002.62,0000.63
2023-05-11 14:21:00,,0823.8,5.00,0.00,25.5,23.8,00.0,33.9,27.1,27.4,0000.0,0000.99,0002.57,0000.62
2023-05-11 14:22:00,,0823.8,5.00,0.00,25.5,23.8,00.0,33.9,27.1,26.8,0000.0,0001.00,0002.62,0000.61
2023-05-11 14:23:00,,0823.8,5.00,0.00,25.5,23.8,00.0,33.9,27.1,26.8,0000.0,0000.98,0002.61,0000.59
2023-05-11 14:24:00,,0823.9,5.00,0.00,25.5,23.8,00.0,33.9,27.1,27.2,0000.0,0000.98,0002.58,0000.58
2023-05-11 14:25:00,,0824.0,5.00,0.00,25.5,23.8,00.0,33.9,27.2,27.6,0000.0,0000.97,0002.46,0000.58
2023-05-11 14:26:00,,0824.0,5.00,0.00,25.5,23.8,00.0,33.9,27.2,27.8,0000.0,0000.93,0002.33,0000.57
2023-05-11 14:27:00,,0824.1,5.00,0.00,25.5,23.8,00.0,33.9,27.2,27.7,0000.0,0000.88,0002.18,0000.56
2023-05-11 14:28:00,,0824.2,5.00,0.00,25.5,23.9,00.0,33.9,27.2,27.8,0000.0,0000.89,0002.22,0000.56
2023-05-11 14:29:00,,0824.4,4.99,0.00,25.5,23.9,00.0,33.9,27.2,27.3,0000.0,0000.91,0002.22,0000.55
2023-05-11 14:30:00,,0824.4,5.00,0.00,25.5,23.9,00.0,33.9,27.2,27.1,0000.0,0000.91,0001.66,0000.55
2023-05-11 14:31:00,,0824.5,4.99,0.00,25.5,24.0,00.0,33.9,27.2,26.8,0000.0,0000.94,0001.75,0000.55
2023-05-11 14:32:00,,0824.7,5.00,0.00,25.5,24.0,00.0,33.9,27.3,27.0,0000.0,0000.94,0001.77,0000.54
2023-05-11 14:33:00,,0824.7,5.00,0.00,25.5,24.1,00.0,33.9,27.3,27.5,0000.0,0000.93,0001.72,0000.54
2023-05-11 14:34:00,,0824.8,5.00,0.00,25.6,24.1,00.0,33.9,27.3,28.5,0000.0,0000.93,0001.74,0000.54
2023-05-11 14:35:00,,0824.8,5.00,0.00,25.6,24.1,00.0,33.9,27.3,29.3,0000.0,0000.98,0001.86,0000.55
2023-05-11 14:36:00,,0824.9,5.01,0.00,25.6,24.2,00.0,33.9,27.3,29.7,0000.0,0001.02,0001.90,0000.57
2023-05-11 14:37:00,,0824.9,5.00,0.00,25.6,24.2,00.0,33.9,27.3,30.2,0000.0,0001.03,0001.88,0000.58
2023-05-11 14:38:00,,0824.9,5.01,0.00,25.6,24.1,00.0,33.9,27.3,30.1,0000.0,0001.07,0001.95,0000.61
2023-05-11 14:39:00,,0824.8,5.00,0.00,25.6,24.1,00.0,33.9,27.3,29.9,0000.0,0001.09,0002.01,0000.64
2023-05-11 14:40:00,,0824.9,5.00,0.00,25.6,24.1,00.0,33.9,27.4,29.8,0000.0,0001.12,0001.91,0000.66
2023-05-11 14:41:00,,0824.9,5.00,0.00,25.6,24.1,00.0,33.9,27.4,29.9,0000.0,0001.15,0001.99,0000.67
2023-05-11 14:42:00,,0824.9,5.00,0.00,25.6,24.1,00.0,33.9,27.4,30.0,0000.0,0001.17,0002.34,0000.70
2023-05-11 14:43:00,,0824.9,4.99,0.00,25.6,24.1,00.0,33.9,27.3,30.0,0000.0,0001.29,0003.47,0000.75
2023-05-11 14:44:00,,0824.9,5.00,0.00,25.6,24.1,00.0,33.9,27.4,30.1,0000.0,0001.47,0005.33,0000.82
2023-05-11 14:45:00,,0824.9,5.00,0.00,25.6,24.1,00.0,33.9,27.4,30.2,0000.0,0001.70,0006.88,0000.90
2023-05-11 14:46:00,,0824.9,5.00,0.00,25.6,24.0,00.0,33.9,27.4,30.2,0000.0,0001.81,0007.39,0000.96
2023-05-11 14:47:00,,0824.9,5.00,0.00,25.6,24.0,00.0,34.0,27.4,30.2,0000.0,0001.97,0008.22,0001.01
2023-05-11 14:48:00,,0824.9,5.00,0.00,25.6,24.1,00.0,34.0,27.4,30.2,0000.0,0002.12,0008.77,0001.05
2023-05-11 14:49:00,,0824.9,5.01,0.00,25.6,24.1,00.0,34.0,27.4,30.3,0000.0,0002.24,0008.97,0001.07
2023-05-11 14:50:00,,0824.9,5.00,0.00,25.6,24.1,00.0,34.0,27.4,30.6,0000.0,0002.35,0009.13,0001.11
2023-05-11 14:51:00,,0824.9,5.01,0.00,25.6,24.1,00.0,34.0,27.3,30.6,0000.0,0002.41,0009.22,0001.14
2023-05-11 14:52:00,,0824.9,5.00,0.00,25.6,24.2,00.0,34.0,27.4,30.7,0000.0,0002.46,0009.29,0001.17
2023-05-11 14:53:00,,0824.9,5.00,0.00,25.6,24.2,00.0,34.0,27.4,30.6,0000.0,0002.49,0009.11,0001.19
2023-05-11 14:54:00,,0824.9,5.00,0.00,25.7,24.2,00.0,34.0,27.4,30.7,0000.0,0002.47,0008.70,0001.19
2023-05-11 14:55:00,,0824.8,5.00,0.00,25.7,24.2,00.0,34.0,27.4,30.6,0000.0,0002.43,0007.87,0001.18
2023-05-11 14:56:00,,0824.8,5.00,0.00,25.7,24.2,00.0,34.0,27.4,30.6,0000.0,0002.29,0006.87,0001.15
2023-05-11 14:57:00,,0824.8,5.00,0.00,25.7,24.2,00.0,34.0,27.4,30.4,0000.0,0002.17,0006.21,0001.13
2023-05-11 14:58:00,,0824.8,4.99,0.00,25.7,24.2,00.0,34.0,27.4,30.4,0000.0,0002.03,0004.94,0001.10
2023-05-11 14:59:00,,0824.7,5.00,0.00,25.7,24.2,00.0,34.0,27.4,30.4,0000.0,0001.91,0003.69,0001.10
